Cerro Moreno Airport
SCFA : now visible

Airfield :











YOU CAN JOIN US ON...

 
LOGIN :

Register | Disclaimer

   EN    FR    IT 

 









Legend :    VFR   Marginal VFR   IFR   Intensive IFR   Very Intensive IFR
Visi :
Ceiling :
>= 8 km
>= 3000ft
5 to 8 km
1000 to 3000 ft
1500m to 5 km
500 to 1000 ft
800 to 1500m
200 to 500 ft
< 800m
< 200 ft
Symbols :   Thunderstorms  Fog  Heavy snow  Heavy precipitations  Wind > 20 kt






- Airport Elevation : 455 ft
- IATA code : ANF


SCFA - Cerro Moreno

CURRENT METAR :
  • 291300Z 35006KT CAVOK 16/11 Q1018 NOSIG

EXPIRED METARs :
  • 291200Z 02004KT 9999 FEW033 17/10 Q1018 NOSIG
  • 291100Z 06005KT 9999 FEW033 17/10 Q1018 NOSIG

TAF TAF SCFA
Valid from the 29 at 12:00 until the 30 at 12:00 UTC


291030Z 2912/3012 01004KT 9999 FEW030 TX20/2917Z TN14/3006Z
BECMG 2916/2918 19010KT FEW030 SCT250
BECMG 3000/3002 15003KT
BECMG 3005/3007 CAVOK
BECMG 3010/3012 01004KT
SCFZ FIR / South America



MET'MAP, your aeronautical weather chart ! - Copyright ORBIFLY December 2007 - Disclaimer

ORBIFLY MET'MAP TEAM :

Programming & Development : Alexandra Zaïnal
Concept & original design : Baudouin d'Aumeries
Assistance for programming : Marc-Olivier Méhu
Technical & hardware support : Manuel Goepfert

Contact : metmap@orbifly.com




SOURCES & CREDITS :

   NOAA       Earth
Advisory